Change the Weather History Date:

Wednesday, December 5, 2012

  Actual Average (KRDU) Record (KRDU)
Temperature  
Mean Temperature 56 °F 46 °F  
Max Temperature 68 °F 57 °F 76 °F (1982)
Min Temperature 44 °F 36 °F 19 °F (1966)
Degree Days  
Heating Degree Days 8 19  
Month to date heating degree days 92  
Since 1 July heating degree days 673  
Cooling Degree Days 0 0  
Month to date cooling degree days 0  
Year to date cooling degree days 1728  
Growing Degree Days 6 (Base 50)    
Moisture  
Dew Point 53 °F    
Average Humidity 82    
Maximum Humidity 97    
Minimum Humidity 62    
Precipitation  
Precipitation 0.00 in 0.10 in 1.36 in (1993)
Month to date precipitation 0.51  
Year to date precipitation 40.78  
Snow  
Snow 0.00 in 0.00 in 1.00 in (1893)
Month to date snowfall 0.0  
Since 1 July snowfall 0.1  
Snow Depth -    
Sea Level Pressure  
Sea Level Pressure 30.16 in    
Wind  
Wind Speed 4 mph (WSW)    
Max Wind Speed 10 mph    
Max Gust Speed -    
Visibility 9 miles    
Events Fog , Rain    
T = Trace of Precipitation, MM = Missing Value Source: NWS Daily Summary

Daily Weather History Graph

Daily Weather History Graph

Search for Another Location

Airport or City:

Trip Planner

Search our weather history database for the weather conditions in past years. The results will help you decide how hot, cold, wet, or windy it might be!

Date:

Astronomy

Dec. 05, 2012 Rise Set
Actual Time 7:11 AM EST 5:03 PM EST
Civil Twilight 6:43 AM EST 5:31 PM EST
Nautical Twilight 6:11 AM EST 6:02 PM EST
Astronomical Twilight 5:40 AM EST 6:33 PM EST
Moon 11:40 PM EST (12/5) 11:43 AM EST (12/5)
Length of Visible Light 10h 47m
Length of Day
9h 51m
Waning Gibbous, 60% of the Moon is Illuminated
Dec 5
Waning Gibbous
Dec 6
Last Quarter
Dec 13
New
Dec 20
First Quarter
Dec 28
Full

Hourly Weather History & Observations

Time (EST) Temp. Dew Point Humidity Pressure Visibility Wind Dir Wind Speed Gust Speed Precip Events Conditions
12:15 AM 52.3 °F 49.3 °F 89% 30.18 in 10.0 mi Calm Calm - N/A   Clear
12:35 AM 54.5 °F 51.6 °F 90% 30.17 in 10.0 mi Calm Calm - N/A   Clear
12:55 AM 55.8 °F 52.3 °F 88% 30.17 in 10.0 mi SSW 4.6 mph - N/A   Clear
1:15 AM 55.4 °F 51.6 °F 87% 30.16 in 10.0 mi SSW 4.6 mph - N/A   Clear
1:35 AM 56.5 °F 52.9 °F 88% 30.16 in 10.0 mi SSW 4.6 mph - N/A   Clear
1:55 AM 57.7 °F 54.0 °F 87% 30.16 in 10.0 mi SSW 4.6 mph - N/A   Clear
2:15 AM 59.0 °F 54.5 °F 85% 30.16 in 10.0 mi SSW 4.6 mph - N/A   Clear
2:35 AM 58.8 °F 54.7 °F 86% 30.16 in 10.0 mi SSW 4.6 mph - N/A   Clear
2:55 AM 59.0 °F 54.9 °F 86% 30.15 in 10.0 mi South 4.6 mph - N/A   Clear
3:15 AM 59.0 °F 54.7 °F 86% 30.15 in 10.0 mi SSW 4.6 mph - N/A   Clear
3:35 AM 59.0 °F 54.9 °F 86% 30.14 in 10.0 mi SSW 5.8 mph - N/A   Clear
3:55 AM 59.0 °F 55.0 °F 87% 30.14 in 10.0 mi SSW 5.8 mph - N/A   Clear
4:15 AM 59.2 °F 55.2 °F 87% 30.14 in 10.0 mi SSW 5.8 mph - N/A   Clear
4:35 AM 58.6 °F 55.0 °F 88% 30.13 in 10.0 mi SSW 4.6 mph - N/A   Mostly Cloudy
4:55 AM 58.8 °F 55.4 °F 88% 30.13 in 10.0 mi SSW 4.6 mph - N/A   Overcast
5:15 AM 59.4 °F 55.6 °F 87% 30.13 in 10.0 mi SSW 3.5 mph - N/A   Overcast
5:35 AM 59.9 °F 55.6 °F 86% 30.13 in 10.0 mi SSW 5.8 mph - N/A   Overcast
5:55 AM 59.9 °F 55.8 °F 86% 30.13 in 10.0 mi SSW 4.6 mph - N/A   Overcast
6:15 AM 59.4 °F 55.9 °F 88% 30.13 in 10.0 mi SSW 5.8 mph - N/A   Overcast
6:35 AM 60.1 °F 56.1 °F 87% 30.14 in 10.0 mi SSW 6.9 mph - N/A   Overcast
6:55 AM 60.4 °F 56.3 °F 86% 30.14 in 10.0 mi SW 4.6 mph - N/A   Overcast
7:15 AM 60.6 °F 56.1 °F 85% 30.14 in 10.0 mi SW 6.9 mph - N/A   Overcast
7:35 AM 60.3 °F 56.1 °F 86% 30.15 in 10.0 mi SW 5.8 mph - N/A   Scattered Clouds
7:55 AM 60.4 °F 56.1 °F 86% 30.16 in 10.0 mi SW 6.9 mph - N/A   Scattered Clouds
9:55 AM 65.5 °F 56.3 °F 72% 30.17 in 10.0 mi SW 10.4 mph - N/A   Overcast
10:15 AM 66.2 °F 56.3 °F 70% 30.17 in 10.0 mi West 8.1 mph - N/A   Overcast
10:35 AM 66.4 °F 55.9 °F 69% 30.17 in 10.0 mi WSW 9.2 mph - N/A   Overcast
10:55 AM 67.3 °F 56.1 °F 67% 30.17 in 10.0 mi WSW 6.9 mph - N/A   Overcast
11:15 AM 67.3 °F 55.9 °F 67% 30.17 in 10.0 mi West 6.9 mph - N/A   Overcast
11:35 AM 68.4 °F 55.4 °F 63% 30.16 in 10.0 mi West 8.1 mph - N/A   Overcast
11:55 AM 68.7 °F 55.4 °F 62% 30.15 in 10.0 mi West 9.2 mph - N/A   Overcast
12:15 PM 68.0 °F 55.2 °F 64% 30.15 in 10.0 mi NNW 5.8 mph - N/A   Overcast
12:55 PM 65.8 °F 54.3 °F 66% 30.14 in 10.0 mi NNW 10.4 mph - N/A   Overcast
1:15 PM 65.3 °F 54.5 °F 68% 30.14 in 10.0 mi NNW 9.2 mph - N/A   Overcast
1:55 PM 64.9 °F 54.5 °F 69% 30.13 in 10.0 mi North 8.1 mph - N/A   Mostly Cloudy
2:15 PM 64.8 °F 54.5 °F 69% 30.13 in 10.0 mi NNE 8.1 mph - N/A   Mostly Cloudy
2:35 PM 64.4 °F 54.3 °F 70% 30.13 in 10.0 mi North 10.4 mph - N/A   Overcast
2:55 PM 63.9 °F 52.7 °F 67% 30.13 in 10.0 mi NNE 8.1 mph - N/A   Overcast
3:15 PM 63.5 °F 50.4 °F 62% 30.13 in 10.0 mi NNE 5.8 mph - N/A   Overcast
3:35 PM 62.8 °F 51.3 °F 66% 30.14 in 10.0 mi North 6.9 mph - N/A   Overcast
3:55 PM 62.4 °F 51.6 °F 68% 30.14 in 10.0 mi North 6.9 mph - N/A   Overcast
4:15 PM 61.7 °F 52.2 °F 71% 30.14 in 10.0 mi NNE 6.9 mph - N/A   Overcast
4:35 PM 61.0 °F 52.3 °F 73% 30.15 in 10.0 mi North 5.8 mph - N/A   Overcast
4:55 PM 60.8 °F 52.3 °F 74% 30.15 in 10.0 mi North 4.6 mph - N/A   Overcast
5:15 PM 60.4 °F 52.2 °F 74% 30.16 in 10.0 mi NNE 4.6 mph - N/A   Overcast
5:35 PM 60.1 °F 52.7 °F 77% 30.17 in 10.0 mi NNE 4.6 mph - N/A Rain Light Rain
5:55 PM 59.2 °F 53.6 °F 82% 30.17 in 10.0 mi NNE 3.5 mph - N/A Rain Light Rain
6:15 PM 58.3 °F 54.0 °F 86% 30.17 in 10.0 mi Calm Calm - N/A Rain Light Rain
6:35 PM 57.9 °F 54.3 °F 88% 30.18 in 10.0 mi Calm Calm - N/A   Overcast
6:55 PM 57.6 °F 54.3 °F 89% 30.18 in 10.0 mi Calm Calm - N/A   Overcast
7:15 PM 57.2 °F 54.5 °F 91% 30.19 in 10.0 mi Calm Calm - N/A   Overcast
7:35 PM 57.0 °F 54.1 °F 90% 30.19 in 10.0 mi Calm Calm - N/A   Overcast
7:55 PM 57.4 °F 54.5 °F 90% 30.19 in 10.0 mi Calm Calm - N/A   Overcast
8:15 PM 56.3 °F 53.8 °F 91% 30.19 in 10.0 mi Calm Calm - N/A   Overcast
8:35 PM 56.3 °F 53.6 °F 91% 30.19 in 10.0 mi Calm Calm - N/A   Overcast
8:55 PM 56.5 °F 53.2 °F 89% 30.19 in 10.0 mi Calm Calm - N/A   Overcast
9:15 PM 56.3 °F 53.1 °F 89% 30.19 in 10.0 mi Calm Calm - N/A   Mostly Cloudy
9:35 PM 53.8 °F 51.4 °F 92% 30.20 in 10.0 mi Calm Calm - N/A   Scattered Clouds
9:55 PM 51.8 °F 50.0 °F 94% 30.20 in 0.5 mi Calm Calm - N/A Fog Fog
10:15 PM 50.4 °F 48.9 °F 95% 30.19 in 0.2 mi Calm Calm - N/A Fog Fog
10:35 PM 48.6 °F 47.3 °F 95% 30.20 in 0.2 mi Calm Calm - N/A Fog Fog
10:55 PM 48.0 °F 46.8 °F 95% 30.20 in 0.5 mi Calm Calm - N/A Fog Fog
11:15 PM 46.4 °F 45.5 °F 97% 30.21 in 0.2 mi Calm Calm - N/A Fog Fog
11:35 PM 45.7 °F 44.8 °F 97% 30.21 in 1.0 mi Calm Calm - N/A   Mostly Cloudy
11:55 PM 44.6 °F 43.7 °F 97% 30.21 in 0.2 mi Calm Calm - N/A Fog Fog